EW3084 Weather Reports


time (UTC)temp
C
wind
direction
speed
KPH
gust
KPH
rain 1hr
cm
rain 24hr
cm
rain mn
cm
humidity
%
barometer
mb
20260508023603 2 82 0.0 1.6 0.00 0.00 0.00 74
20260508022703 2 82 0.0 1.6 0.00 0.00 0.00 74
20260508021803 2 0 0.0 0.0 0.00 0.00 0.00 73
20260508020903 2 82 0.0 1.6 0.00 0.00 0.00 73
20260508020003 2 0 0.0 0.0 0.00 0.00 0.00 73
20260508015403 2 0 0.0 0.0 0.00 0.00 0.00 72
20260508014503 2 0 0.0 0.0 0.00 0.00 0.00 72
20260508013603 2 82 0.0 1.6 0.00 0.00 0.00 72
20260508012703 2 0 0.0 0.0 0.00 0.00 0.00 72
20260508011803 2 82 0.0 1.6 0.00 0.00 0.00 71
20260508010903 2 82 0.0 1.6 0.00 0.00 0.00 71
20260508010003 2 82 0.0 3.2 0.00 0.00 0.00 71
20260508005403 2 82 0.0 3.2 0.00 0.00 0.00 71
20260508004503 2 82 0.0 4.8 0.00 0.00 0.00 70
20260508003603 3 82 0.0 1.6 0.00 0.00 0.00 70
20260508002703 3 0 0.0 0.0 0.00 0.00 0.00 70
20260508001803 3 0 0.0 0.0 0.00 0.00 0.00 69
20260508000903 3 82 0.0 3.2 0.00 0.00 0.00 69
20260508000216 3 82 0.0 3.2 0.00 0.00 0.00 68
20260507235403 3 82 0.0 1.6 0.00 0.00 0.00 68
20260507234503 3 82 0.0 1.6 0.00 0.00 0.00 67
20260507233603 3 0 0.0 0.0 0.00 0.00 0.00 67
20260507232703 4 0 0.0 0.0 0.00 0.00 0.00 67
20260507231803 4 83 0.0 1.6 0.00 0.00 0.00 66
20260507230903 4 0 0.0 0.0 0.00 0.00 0.00 66
20260507230003 4 0 0.0 0.0 0.00 0.00 0.00 65
20260507225615 4 0 0.0 0.0 0.00 0.00 0.00 65
20260507224503 5 0 0.0 0.0 0.00 0.00 0.00 64
20260507223603 5 0 0.0 0.0 0.00 0.00 0.00 64
20260507222703 5 0 0.0 0.0 0.00 0.00 0.00 63
20260507221803 5 101 0.0 1.6 0.00 0.00 0.00 63
20260507220903 5 129 0.0 1.6 0.00 0.00 0.00 62
20260507220003 5 66 0.0 1.6 0.00 0.00 0.00 61
20260507215403 6 66 0.0 1.6 0.00 0.00 0.00 60
20260507214503 6 48 0.0 1.6 0.00 0.00 0.00 59
20260507213603 6 94 0.0 3.2 0.00 0.00 0.00 56
20260507212703 6 0 0.0 0.0 0.00 0.00 0.00 55
20260507212016 6 0 0.0 0.0 0.00 0.00 0.00 54
20260507211116 6 8 0.0 1.6 0.00 0.00 0.00 53
20260507210003 7 8 0.0 1.6 0.00 0.00 0.00 50
20260507205403 7 0 0.0 0.0 0.00 0.00 0.00 49
20260507204503 7 360 0.0 1.6 0.00 0.00 0.00 46
20260507203817 7 0 0.0 0.0 0.00 0.00 0.00 48
20260507202703 7 0 0.0 0.0 0.00 0.00 0.00 47
20260507201803 7 360 0.0 3.2 0.00 0.00 0.00 44
20260507200903 7 0 0.0 0.0 0.00 0.00 0.00 45
20260507200003 8 0 0.0 0.0 0.00 0.00 0.00 42
20260507195403 8 0 0.0 0.0 0.00 0.00 0.00 39
20260507194503 8 1 0.0 1.6 0.00 0.00 0.00 38
20260507193603 8 357 0.0 3.2 0.00 0.00 0.00 38
20260507192703 9 0 0.0 0.0 0.00 0.00 0.00 36
20260507191803 9 0 0.0 0.0 0.00 0.00 0.00 34
20260507190903 10 336 0.0 1.6 0.00 0.00 0.00 32
20260507190004 10 336 0.0 1.6 0.00 0.00 0.00 34
20260507185403 10 0 0.0 0.0 0.00 0.00 0.00 32
20260507184717 10 0 0.0 0.0 0.00 0.00 0.00 32
20260507183603 11 336 0.0 1.6 0.00 0.00 0.00 34
20260507182703 11 336 0.0 1.6 0.00 0.00 0.00 32
20260507181803 11 336 0.0 3.2 0.00 0.00 0.00 31
20260507180903 12 18 0.0 4.8 0.00 0.00 0.00 28
20260507180003 12 33 0.0 3.2 0.00 0.00 0.00 27
20260507175403 12 33 0.0 1.6 0.00 0.00 0.00 27
20260507174717 13 33 0.0 3.2 0.00 0.00 0.00 28
20260507173603 13 33 0.0 3.2 0.00 0.00 0.00 26
20260507172915 14 351 1.6 8.0 0.00 0.00 0.00 27
20260507171803 14 87 1.6 4.8 0.00 0.00 0.00 28
20260507170903 15 107 1.6 4.8 0.00 0.00 0.00 24
20260507170003 15 78 1.6 3.2 0.00 0.00 0.00 24
20260507165403 15 34 1.6 4.8 0.00 0.00 0.00 21
20260507164503 16 356 1.6 8.0 0.00 0.00 0.00 21
20260507163603 16 4 1.6 8.0 0.00 0.00 0.00 22
20260507162919 16 351 3.2 11.3 0.00 0.00 0.00 23
20260507161803 16 307 4.8 9.7 0.00 0.00 0.00 22
20260507160903 15 323 6.4 14.5 0.00 0.00 0.00 22
20260507160003 15 304 6.4 17.7 0.00 0.00 0.00 21
20260507155403 15 295 3.2 17.7 0.00 0.00 0.00 23
20260507154716 15 165 1.6 6.4 0.00 0.00 0.00 21
20260507153815 15 270 4.8 14.5 0.00 0.00 0.00 21
20260507152703 15 335 6.4 11.3 0.00 0.00 0.00 21
20260507151803 15 289 6.4 19.3 0.00 0.00 0.00 22
20260507150903 16 195 3.2 9.7 0.00 0.00 0.00 21
20260507150003 16 233 3.2 6.4 0.00 0.00 0.00 21
20260507145616 15 299 3.2 9.7 0.00 0.00 0.00 21
20260507144503 15 284 6.4 17.7 0.00 0.00 0.00 22
20260507143603 15 287 9.7 17.7 0.00 0.00 0.00 23
20260507142703 15 300 9.7 22.5 0.00 0.00 0.00 22
20260507141803 15 301 9.7 24.1 0.00 0.00 0.00 21
20260507140903 15 323 6.4 16.1 0.00 0.00 0.00 20
20260507140003 15 302 6.4 14.5 0.00 0.00 0.00 24
20260507135403 15 293 6.4 16.1 0.00 0.00 0.00 23
20260507134503 15 306 8.0 19.3 0.00 0.00 0.00 25
20260507133603 15 310 6.4 17.7 0.00 0.00 0.00 23
20260507132918 15 305 4.8 14.5 0.00 0.00 0.00 21
20260507131803 15 285 8.0 17.7 0.00 0.00 0.00 23
20260507131117 15 287 8.0 20.9 0.00 0.00 0.00 23
20260507130003 15 293 6.4 19.3 0.00 0.00 0.00 21
20260507125403 15 296 4.8 19.3 0.00 0.00 0.00 24
20260507124503 15 280 4.8 14.5 0.00 0.00 0.00 25
20260507123603 14 274 4.8 11.3 0.00 0.00 0.00 28
20260507122703 14 84 1.6 6.4 0.00 0.00 0.00 28
20260507121803 13 112 1.6 6.4 0.00 0.00 0.00 24
20260507120903 14 159 1.6 6.4 0.00 0.00 0.00 28
20260507120003 14 25 3.2 8.0 0.00 0.00 0.00 26
20260507115403 15 349 3.2 16.1 0.00 0.00 0.00 26
20260507114503 14 340 4.8 19.3 0.00 0.00 0.00 26
20260507113603 13 318 3.2 8.0 0.00 0.00 0.00 27
20260507112703 13 319 6.4 11.3 0.00 0.00 0.00 27
20260507111803 14 308 6.4 14.5 0.00 0.00 0.00 27
20260507110903 13 316 4.8 16.1 0.00 0.00 0.00 26
20260507110003 13 333 3.2 9.7 0.00 0.00 0.00 28
20260507105403 13 334 3.2 11.3 0.00 0.00 0.00 28
20260507104503 13 294 6.4 19.3 0.00 0.00 0.00 28
20260507103603 12 334 3.2 9.7 0.00 0.00 0.00 31
20260507102917 12 303 3.2 11.3 0.00 0.00 0.00 38
20260507101803 12 299 4.8 14.5 0.00 0.00 0.00 31
20260507101116 13 302 4.8 12.9 0.00 0.00 0.00 30
20260507100003 13 323 6.4 14.5 0.00 0.00 0.00 29
20260507095403 13 292 6.4 16.1 0.00 0.00 0.00 31
20260507094718 13 292 6.4 14.5 0.00 0.00 0.00 33
20260507093603 13 321 4.8 11.3 0.00 0.00 0.00 28
20260507092703 12 8 4.8 16.1 0.00 0.00 0.00 33
20260507091803 12 9 4.8 14.5 0.00 0.00 0.00 29
20260507090903 12 280 4.8 16.1 0.00 0.00 0.00 35
20260507090003 12 286 4.8 9.7 0.00 0.00 0.00 42
20260507085403 12 243 3.2 9.7 0.00 0.00 0.00 42
20260507084718 11 189 3.2 9.7 0.00 0.00 0.00 42
20260507083603 11 213 1.6 8.0 0.00 0.00 0.00 45
20260507082703 11 196 1.6 8.0 0.00 0.00 0.00 45
20260507081803 11 198 1.6 6.4 0.00 0.00 0.00 46
20260507080903 10 166 4.8 11.3 0.00 0.00 0.00 49
20260507080003 10 168 1.6 9.7 0.00 0.00 0.00 48
20260507075403 10 65 1.6 6.4 0.00 0.00 0.00 48
20260507074503 10 310 3.2 9.7 0.00 0.00 0.00 51
20260507073603 10 34 1.6 4.8 0.00 0.00 0.00 51
20260507072916 9 91 0.0 3.2 0.00 0.00 0.00 54
20260507071803 8 86 1.6 6.4 0.00 0.00 0.00 54
20260507070903 8 86 1.6 6.4 0.00 0.00 0.00 56
20260507070005 7 86 1.6 6.4 0.00 0.00 0.00 56
20260507065403 7 86 1.6 6.4 0.00 0.00 0.00 59
20260507064503 6 86 0.0 4.8 0.00 0.00 0.00 59
20260507063603 6 86 0.0 3.2 0.00 0.00 0.00 60
20260507062703 6 86 0.0 4.8 0.00 0.00 0.00 60
20260507061803 5 86 1.6 4.8 0.00 0.00 0.00 63
20260507060903 5 86 1.6 4.8 0.00 0.00 0.00 65
20260507060003 4 86 0.0 3.2 0.00 0.00 0.00 67
20260507055403 4 86 0.0 3.2 0.00 0.00 0.00 69
20260507054716 3 86 0.0 1.6 0.00 0.00 0.00 71
20260507053603 3 0 0.0 0.0 0.00 0.00 0.00 73
20260507052703 2 0 0.0 0.0 0.00 0.00 0.00 74
20260507051803 2 0 0.0 0.0 0.00 0.00 0.00 73
20260507050903 2 0 0.0 0.0 0.00 0.00 0.00 73
20260507050217 2 0 0.0 0.0 0.00 0.00 0.00 73
20260507045403 2 0 0.0 0.0 0.00 0.00 0.00 73
20260507044503 2 0 0.0 0.0 0.00 0.00 0.00 73
20260507043603 1 0 0.0 0.0 0.00 0.00 0.00 74
20260507042703 1 0 0.0 0.0 0.00 0.00 0.00 75
20260507041803 1 0 0.0 0.0 0.00 0.00 0.00 75
20260507040903 1 0 0.0 0.0 0.00 0.00 0.00 75
20260507040003 1 0 0.0 0.0 0.00 0.00 0.00 75
20260507035403 1 0 0.0 0.0 0.00 0.00 0.00 75
20260507034503 2 0 0.0 0.0 0.00 0.00 0.00 74
20260507033603 2 0 0.0 0.0 0.00 0.00 0.00 74
20260507032703 2 0 0.0 0.0 0.00 0.00 0.00 74
20260507031803 2 0 0.0 0.0 0.00 0.00 0.00 73
20260507030903 2 0 0.0 0.0 0.00 0.00 0.00 72
20260507030003 2 0 0.0 0.0 0.00 0.00 0.00 71
20260507025403 2 0 0.0 0.0 0.00 0.00 0.00 71
20260507024503 2 0 0.0 0.0 0.00 0.00 0.00 71